Simultaneous Nadir Overpasses (SNOs) Predictions

Prediction of SNOs between FY3D and NOAA-19 Satellite Orbit:

Table of predicted SNOs for the next 14.0 days since TLE Epoch: 4/24/2021
Index Date (FY3D) Time (FY3D) Lat,Lon (FY3D) SZA (FY3D ) Date (NOAA-19) Time (NOAA-19) Lat,Lon (NOAA-19) SZA (NOAA-19 ) Distance(km) Time Diff (sec)
1 04/25/2021 17:25:49 78.62,-107.14 66.27 04/25/2021 17:24:40 78.59,-107.13 66.28 2.68 69
2 04/25/2021 18:16:33 -78.61, 60.19 113.75 04/25/2021 18:15:41 -78.59, 60.13 113.74 2.46 52
3 04/25/2021 19:07:18 78.62,-132.52 66.25 04/25/2021 19:06:40 78.60,-132.53 66.26 1.31 38
4 04/25/2021 19:58:02 -78.61, 34.81 113.77 04/25/2021 19:57:41 -78.61, 34.73 113.76 2.10 21
5 04/25/2021 20:48:47 78.62,-157.90 66.23 04/25/2021 20:48:40 78.62,-157.93 66.24 0.75 7
6 04/25/2021 21:39:31 -78.61, 9.44 113.79 04/25/2021 21:39:41 -78.62, 9.32 113.78 2.63 10
7 04/25/2021 22:30:16 78.62, 176.72 66.21 04/25/2021 22:30:40 78.63, 176.66 66.22 1.91 24
8 04/25/2021 23:21:01 -78.65, -16.18 113.76 04/25/2021 23:21:41 -78.63, -16.09 113.80 3.04 40
9 04/26/2021 00:11:45 78.62, 151.34 66.19 04/26/2021 00:12:40 78.65, 151.26 66.20 3.30 55
10 04/26/2021 01:02:30 -78.65, -41.56 113.78 04/26/2021 01:03:41 -78.65, -41.50 113.82 1.69 71



Historial Predications of SNOs between FY3D and NOAA-19
